KLM1089 TLPL-TTCP

Flight info

Callsign KLM1089
Flight time 0h 34m
Altitude 20000
Route DCT KOBAK DCT GOTER DCT PIBNA DCT
Aircraft A321/M-VGDW/C

Departure

Time 2026-04-25 23:35
Airport Hewanorra International Airport (TLPL)

Arrival

Time 2026-04-26 00:10
Airport A.N.R. Robinson International Airport (TTCP)
Time Latitude Longitude Altitude Speed Heading
2026-04-25 23:25 13.73600 -60.95068 36 ft 0 kts
2026-04-25 23:28 13.73597 -60.95068 36 ft 2 kts
2026-04-25 23:28 13.73582 -60.95068 36 ft 2 kts 360°
2026-04-25 23:28 13.73568 -60.95068 35 ft 1 kts
2026-04-25 23:29 13.73558 -60.95068 35 ft 2 kts 352°
2026-04-25 23:29 13.73544 -60.95063 35 ft 2 kts 328°
2026-04-25 23:29 13.73532 -60.95053 35 ft 2 kts 309°
2026-04-25 23:29 13.73524 -60.95039 35 ft 2 kts 289°
2026-04-25 23:30 13.73521 -60.95026 35 ft 0 kts 272°
2026-04-25 23:30 13.73522 -60.95020 35 ft 1 kts 269°
2026-04-25 23:30 13.73522 -60.95018 35 ft 0 kts 269°
2026-04-25 23:32 13.73521 -60.95026 35 ft 6 kts 268°
2026-04-25 23:32 13.73504 -60.95130 34 ft 13 kts 239°
2026-04-25 23:32 13.73416 -60.95150 34 ft 18 kts 178°
2026-04-25 23:32 13.73342 -60.95201 32 ft 12 kts 251°
2026-04-25 23:33 13.73334 -60.95296 32 ft 14 kts 267°
2026-04-25 23:33 13.73332 -60.95417 32 ft 25 kts 271°
2026-04-25 23:33 13.73333 -60.95626 32 ft 30 kts 270°
2026-04-25 23:33 13.73331 -60.95842 32 ft 29 kts 269°
2026-04-25 23:34 13.73334 -60.96049 31 ft 28 kts 271°
2026-04-25 23:34 13.73336 -60.96250 30 ft 28 kts 271°
2026-04-25 23:34 13.73330 -60.96445 28 ft 25 kts 261°
2026-04-25 23:34 13.73335 -60.96501 28 ft 3 kts 31°
2026-04-25 23:35 13.73341 -60.96446 29 ft 25 kts 89°
2026-04-25 23:35 13.73339 -60.95996 32 ft 100 kts 90°
2026-04-25 23:35 13.73339 -60.95059 41 ft 158 kts 90°
2026-04-25 23:35 13.73355 -60.93907 649 ft 160 kts 90°
2026-04-25 23:36 13.73361 -60.92793 1350 ft 158 kts 91°
2026-04-25 23:36 13.73266 -60.91672 1892 ft 162 kts 111°
2026-04-25 23:36 13.72450 -60.90844 2214 ft 181 kts 158°
2026-04-25 23:36 13.71149 -60.90694 2593 ft 200 kts 176°
2026-04-25 23:37 13.69747 -60.90376 2970 ft 217 kts 150°
2026-04-25 23:37 13.68461 -60.89494 3458 ft 233 kts 142°
2026-04-25 23:37 13.67118 -60.88444 3956 ft 251 kts 142°
2026-04-25 23:37 13.65659 -60.87357 4536 ft 266 kts 144°
2026-04-25 23:38 13.64143 -60.86286 5350 ft 270 kts 145°
2026-04-25 23:38 13.62596 -60.85225 6187 ft 273 kts 146°
2026-04-25 23:38 13.61007 -60.84151 7000 ft 276 kts 146°
2026-04-25 23:38 13.59314 -60.83223 7774 ft 281 kts 161°
2026-04-25 23:39 13.57391 -60.82929 8544 ft 286 kts 181°
2026-04-25 23:39 13.55401 -60.83099 9340 ft 288 kts 186°
2026-04-25 23:39 13.53413 -60.83338 10080 ft 292 kts 186°
2026-04-25 23:39 13.51379 -60.83586 10634 ft 302 kts 186°
2026-04-25 23:40 13.49257 -60.83836 10958 ft 320 kts 186°
2026-04-25 23:40 13.46962 -60.84097 11278 ft 338 kts 186°
2026-04-25 23:40 13.44584 -60.84362 11588 ft 355 kts 186°
2026-04-25 23:40 13.42084 -60.84637 12110 ft 365 kts 186°
2026-04-25 23:41 13.39588 -60.84911 12835 ft 367 kts 185°
2026-04-25 23:41 13.37045 -60.85189 13561 ft 370 kts 185°
2026-04-25 23:41 13.34464 -60.85469 14248 ft 373 kts 185°
2026-04-25 23:41 13.31902 -60.85747 14905 ft 377 kts 185°
2026-04-25 23:42 13.29283 -60.86029 15551 ft 380 kts 185°
2026-04-25 23:42 13.26673 -60.86310 16169 ft 383 kts 184°
2026-04-25 23:42 13.24027 -60.86594 16772 ft 387 kts 184°
2026-04-25 23:42 13.21323 -60.86884 17364 ft 391 kts 184°
2026-04-25 23:43 13.18611 -60.87175 17935 ft 394 kts 184°
2026-04-25 23:43 13.15900 -60.87467 18484 ft 398 kts 184°
2026-04-25 23:43 13.13138 -60.87759 19020 ft 401 kts 182°
2026-04-25 23:43 13.10367 -60.87974 19539 ft 405 kts 181°
2026-04-25 23:44 13.07562 -60.88167 19868 ft 408 kts 181°
2026-04-25 23:44 13.04728 -60.88358 19928 ft 409 kts 181°
2026-04-25 23:44 13.01901 -60.88549 19938 ft 409 kts 181°
2026-04-25 23:44 12.99075 -60.88741 19940 ft 409 kts 182°
2026-04-25 23:45 12.96213 -60.88936 19941 ft 409 kts 182°
2026-04-25 23:45 12.93401 -60.89129 19941 ft 409 kts 182°
2026-04-25 23:45 12.90563 -60.89325 19941 ft 409 kts 182°
2026-04-25 23:45 12.87738 -60.89520 19941 ft 409 kts 182°
2026-04-25 23:46 12.84915 -60.89714 19941 ft 409 kts 182°
2026-04-25 23:46 12.82069 -60.89909 19941 ft 409 kts 182°
2026-04-25 23:46 12.79250 -60.90102 19941 ft 409 kts 182°
2026-04-25 23:46 12.76427 -60.90296 19941 ft 409 kts 182°
2026-04-25 23:47 12.73597 -60.90490 19941 ft 409 kts 182°
2026-04-25 23:47 12.70763 -60.90685 19941 ft 409 kts 182°
2026-04-25 23:47 12.67945 -60.90878 19941 ft 409 kts 182°
2026-04-25 23:47 12.65109 -60.91072 19941 ft 409 kts 182°
2026-04-25 23:48 12.62259 -60.91268 19941 ft 409 kts 182°
2026-04-25 23:48 12.59449 -60.91460 19941 ft 409 kts 182°
2026-04-25 23:48 12.56604 -60.91655 19941 ft 409 kts 182°
2026-04-25 23:48 12.53773 -60.91849 19941 ft 409 kts 182°
2026-04-25 23:49 12.50910 -60.92045 19941 ft 409 kts 182°
2026-04-25 23:49 12.48111 -60.92237 19807 ft 410 kts 182°
2026-04-25 23:49 12.45271 -60.92431 19449 ft 405 kts 182°
2026-04-25 23:49 12.42480 -60.92622 19099 ft 403 kts 182°
2026-04-25 23:50 12.39703 -60.92812 18750 ft 401 kts 182°
2026-04-25 23:50 12.36910 -60.93002 18397 ft 399 kts 182°
2026-04-25 23:50 12.34169 -60.93189 18048 ft 396 kts 182°
2026-04-25 23:50 12.31436 -60.93376 17698 ft 394 kts 182°
2026-04-25 23:51 12.28731 -60.93560 17350 ft 392 kts 182°
2026-04-25 23:51 12.26028 -60.93749 17000 ft 390 kts 182°
2026-04-25 23:51 12.23313 -60.93938 16647 ft 388 kts 182°
2026-04-25 23:51 12.20654 -60.94122 16299 ft 386 kts 182°
2026-04-25 23:52 12.17969 -60.94307 15946 ft 384 kts 182°
2026-04-25 23:52 12.15341 -60.94488 15599 ft 382 kts 182°
2026-04-25 23:52 12.12707 -60.94668 15248 ft 380 kts 183°
2026-04-25 23:52 12.10072 -60.94848 14896 ft 378 kts 183°
2026-04-25 23:53 12.07485 -60.95025 14549 ft 376 kts 183°
2026-04-25 23:53 12.04874 -60.95203 14197 ft 374 kts 183°
2026-04-25 23:53 12.02308 -60.95378 13850 ft 372 kts 183°
2026-04-25 23:53 11.99739 -60.95553 13500 ft 371 kts 183°
2026-04-25 23:54 11.97153 -60.95729 13146 ft 369 kts 183°
2026-04-25 23:54 11.94604 -60.95903 12795 ft 367 kts 183°
2026-04-25 23:54 11.92094 -60.96074 12449 ft 365 kts 183°
2026-04-25 23:54 11.89549 -60.96247 12095 ft 364 kts 183°
2026-04-25 23:55 11.87064 -60.96416 11749 ft 362 kts 183°
2026-04-25 23:55 11.84559 -60.96587 11398 ft 360 kts 183°
2026-04-25 23:55 11.82057 -60.96757 11045 ft 357 kts 183°
2026-04-25 23:55 11.79615 -60.96923 10693 ft 350 kts 183°
2026-04-25 23:56 11.77210 -60.97087 10341 ft 343 kts 183°
2026-04-25 23:56 11.74867 -60.97246 9991 ft 336 kts 183°
2026-04-25 23:56 11.72534 -60.97404 9636 ft 330 kts 183°
2026-04-25 23:56 11.70294 -60.97555 9290 ft 325 kts 183°
2026-04-25 23:57 11.68040 -60.97708 8934 ft 320 kts 183°
2026-04-25 23:57 11.65861 -60.97856 8587 ft 315 kts 183°
2026-04-25 23:57 11.63694 -60.98003 8236 ft 311 kts 183°
2026-04-25 23:57 11.61548 -60.98148 7883 ft 307 kts 183°
2026-04-25 23:58 11.59462 -60.98289 7537 ft 303 kts 183°
2026-04-25 23:58 11.57366 -60.98431 7184 ft 299 kts 183°
2026-04-25 23:58 11.55316 -60.98571 6835 ft 296 kts 183°
2026-04-25 23:58 11.53275 -60.98709 6484 ft 293 kts 183°
2026-04-25 23:59 11.51266 -60.98845 6135 ft 290 kts 183°
2026-04-25 23:59 11.49253 -60.98981 5782 ft 287 kts 183°
2026-04-25 23:59 11.47282 -60.99115 5433 ft 285 kts 183°
2026-04-25 23:59 11.45318 -60.99248 5253 ft 275 kts 182°
2026-04-26 00:00 11.43437 -60.99375 5104 ft 272 kts 182°
2026-04-26 00:00 11.41563 -60.99501 4955 ft 272 kts 182°
2026-04-26 00:00 11.39674 -60.99629 4822 ft 271 kts 182°
2026-04-26 00:00 11.37781 -60.99756 4696 ft 271 kts 182°
2026-04-26 00:01 11.35917 -60.99882 4572 ft 271 kts 182°
2026-04-26 00:01 11.34043 -61.00009 4447 ft 270 kts 182°
2026-04-26 00:01 11.32160 -61.00137 4322 ft 270 kts 182°
2026-04-26 00:01 11.30313 -61.00262 4198 ft 269 kts 182°
2026-04-26 00:02 11.28451 -61.00388 4070 ft 265 kts 182°
2026-04-26 00:02 11.26644 -61.00514 4003 ft 253 kts 184°
2026-04-26 00:02 11.24950 -61.00713 3890 ft 244 kts 186°
2026-04-26 00:02 11.23285 -61.00944 3621 ft 241 kts 186°
2026-04-26 00:03 11.21633 -61.01178 3370 ft 238 kts 186°
2026-04-26 00:03 11.20024 -61.01405 3120 ft 235 kts 186°
2026-04-26 00:03 11.18414 -61.01630 2869 ft 232 kts 186°
2026-04-26 00:03 11.16808 -61.01786 2605 ft 229 kts 173°
2026-04-26 00:04 11.15403 -61.01176 2332 ft 225 kts 133°
2026-04-26 00:04 11.14757 -60.99783 2098 ft 223 kts 91°
2026-04-26 00:04 11.15059 -60.98234 1992 ft 219 kts 73°
2026-04-26 00:04 11.15431 -60.96766 1862 ft 211 kts 81°
2026-04-26 00:05 11.15605 -60.95338 1765 ft 196 kts 86°
2026-04-26 00:05 11.15648 -60.94026 1692 ft 172 kts 90°
2026-04-26 00:05 11.15629 -60.92903 1685 ft 149 kts 92°
2026-04-26 00:05 11.15584 -60.91851 1696 ft 150 kts 94°
2026-04-26 00:06 11.15523 -60.90800 1684 ft 144 kts 94°
2026-04-26 00:06 11.15452 -60.89788 1690 ft 141 kts 95°
2026-04-26 00:06 11.15388 -60.88936 1694 ft 141 kts 95°
2026-04-26 00:06 11.15460 -60.92357 1833 ft 141 kts 97°
2026-04-26 00:07 11.15402 -60.91339 1713 ft 141 kts 91°
2026-04-26 00:07 11.15406 -60.90343 1588 ft 141 kts 91°
2026-04-26 00:07 11.15372 -60.89348 1393 ft 141 kts 94°
2026-04-26 00:07 11.15324 -60.88354 1125 ft 141 kts 94°
2026-04-26 00:08 11.15514 -60.87565 824 ft 137 kts 96°
2026-04-26 00:08 11.15319 -60.87441 664 ft 140 kts 103°
2026-04-26 00:08 11.15182 -60.86480 442 ft 138 kts 95°
2026-04-26 00:08 11.15125 -60.85503 257 ft 138 kts 95°
2026-04-26 00:09 11.15057 -60.84531 99 ft 137 kts 94°
2026-04-26 00:09 11.14998 -60.83609 49 ft 117 kts 95°
2026-04-26 00:09 11.14948 -60.82954 47 ft 70 kts 95°
2026-04-26 00:09 11.14917 -60.82499 40 ft 63 kts 95°
2026-04-26 00:10 11.14891 -60.82151 33 ft 25 kts 93°
2026-04-26 00:10 11.14841 -60.82003 29 ft 19 kts 64°
2026-04-26 00:10 11.14878 -60.82016 30 ft 6 kts 284°
2026-04-26 00:10 11.14887 -60.82102 32 ft 16 kts 274°
2026-04-26 00:11 11.14895 -60.82225 34 ft 18 kts 272°
2026-04-26 00:11 11.14902 -60.82353 37 ft 18 kts 278°
2026-04-26 00:11 11.14916 -60.82501 40 ft 20 kts 275°
2026-04-26 00:11 11.14930 -60.82659 43 ft 26 kts 275°
2026-04-26 00:12 11.14949 -60.82939 47 ft 48 kts 274°
2026-04-26 00:12 11.14974 -60.83306 51 ft 53 kts 274°
2026-04-26 00:12 11.14997 -60.83654 48 ft 32 kts 274°
2026-04-26 00:12 11.15012 -60.83830 45 ft 22 kts 275°
2026-04-26 00:13 11.15048 -60.83961 42 ft 10 kts 322°
2026-04-26 00:13 11.15080 -60.83973 42 ft 2 kts 353°
2026-04-26 00:13 11.15101 -60.83969 42 ft 3 kts 17°
2026-04-26 00:13 11.15134 -60.83954 42 ft 8 kts 13°
2026-04-26 00:14 11.15180 -60.83947 43 ft 0 kts